FW1476 Weather Reports


time (UTC)temp
F
wind
direction
speed
knots
gust
knots
rain 1hr
in
rain 24hr
in
rain mn
in
humidity
%
barometer
mb
20260906164533 74 122 1.7 9.6 0.00 0.00 0.00 86 1022.2
20260906163110 74 150 3.5 7.0 0.00 0.00 0.00 86 1022.3
20260906163004 74 122 3.5 7.0 0.00 0.00 0.00 86 1022.2
20260906161532 74 124 1.7 6.1 0.00 0.00 0.00 86 1022.1
20260906160006 73 113 2.6 7.8 0.00 0.00 0.00 88 1022.2
20260906154525 72 111 1.7 6.1 0.00 0.00 0.00 90 1022.3
20260906153057 71 86 1.7 4.3 0.00 0.00 0.00 92 1022.2
20260906151521 71 68 1.7 7.0 0.00 0.00 0.00 91 1022.5
20260906150108 71 85 0.9 4.3 0.00 0.00 0.00 92 1022.5
20260906144514 70 139 1.7 3.5 0.00 0.00 0.00 92 1022.3
20260906143049 70 60 1.7 5.2 0.00 0.00 0.00 92 1022.1
20260906141508 70 92 0.9 5.2 0.00 0.00 0.00 93 1022.2
20260906140039 70 129 2.6 6.1 0.00 0.00 0.00 93 1021.9
20260906134509 69 102 1.7 6.1 0.00 0.00 0.00 93 1022.0
20260906133051 69 109 1.7 7.0 0.00 0.00 0.00 95 1021.9
20260906131511 68 113 5.2 9.6 0.00 0.00 0.00 96 1021.7
20260906130037 68 78 3.5 7.8 0.00 0.00 0.00 97 1021.4
20260906124503 68 108 2.6 8.7 0.00 0.00 0.00 97 1021.4
20260906123025 68 119 4.3 8.7 0.00 0.00 0.00 97 1021.3
20260906121556 68 121 3.5 7.0 0.00 0.00 0.00 98 1021.3
20260906120030 68 112 3.5 7.8 0.00 0.00 0.00 98 1021.4
20260906114548 68 129 2.6 6.1 0.00 0.00 0.00 98 1021.3
20260906113013 68 118 1.7 5.2 0.00 0.00 0.00 98 1021.1
20260906111545 68 115 0.9 3.5 0.00 0.00 0.00 98 1021.1
20260906110012 68 123 0.0 2.6 0.00 0.00 0.00 97 1021.0
20260906104539 68 112 0.9 3.5 0.00 0.00 0.00 97 1020.7
20260906103011 68 115 1.7 3.5 0.00 0.00 0.00 97 1020.7
20260906101533 69 119 0.0 2.6 0.00 0.00 0.00 97 1020.8
20260906100005 69 120 1.7 3.5 0.00 0.00 0.00 97 1020.7
20260906094528 69 133 1.7 6.1 0.00 0.00 0.00 97 1020.1
20260906093054 69 112 1.7 6.1 0.00 0.00 0.00 97 1019.8
20260906091525 69 93 2.6 6.1 0.00 0.00 0.00 97 1019.5
20260906090053 70 94 1.7 6.1 0.00 0.00 0.00 96 1019.7
20260906084523 70 95 0.9 5.2 0.00 0.00 0.00 96 1019.7
20260906083051 70 96 2.6 6.1 0.00 0.00 0.00 96 1019.6
20260906081519 71 125 2.6 7.0 0.00 0.00 0.00 95 1019.6
20260906080040 71 99 3.5 7.0 0.00 0.00 0.00 95 1019.7
20260906074513 71 104 1.7 7.8 0.00 0.00 0.00 94 1019.7
20260906073040 71 75 4.3 8.7 0.00 0.00 0.00 94 1019.7
20260906071514 71 93 0.9 7.0 0.00 0.00 0.00 94 1019.8
20260906070042 72 110 1.7 8.7 0.00 0.00 0.00 94 1020.0
20260906064517 72 80 2.6 7.0 0.00 0.00 0.00 94 1020.5
20260906063043 72 68 2.6 7.8 0.00 0.00 0.00 93 1020.5
20260906061511 72 62 1.7 6.1 0.00 0.00 0.00 93 1020.5
20260906060027 72 85 2.6 7.0 0.00 0.00 0.00 92 1020.4
20260906054604 72 68 4.3 7.8 0.00 0.00 0.00 93 1020.2
20260906053024 72 84 1.7 6.1 0.00 0.00 0.00 93 1019.9
20260906051606 73 85 2.6 5.2 0.00 0.00 0.00 93 1019.9
20260906050025 73 54 2.6 5.2 0.00 0.00 0.00 92 1019.7
20260906044550 73 62 2.6 7.0 0.00 0.00 0.00 92 1019.9
20260906043018 74 66 1.7 5.2 0.00 0.00 0.00 91 1019.8
20260906041542 74 83 0.9 3.5 0.00 0.00 0.00 91 1019.8
20260906040026 74 81 0.9 3.5 0.00 0.00 0.00 91 1019.7
20260906034555 74 60 0.0 3.5 0.00 0.00 0.00 91 1019.8
20260906033038 75 62 1.7 5.2 0.00 0.00 0.00 90 1019.6
20260906031545 75 87 0.0 3.5 0.00 0.00 0.00 90 1019.5
20260906030016 75 92 0.9 5.2 0.00 0.00 0.00 90 1019.2
20260906024542 75 84 1.7 5.2 0.00 0.00 0.00 90 1019.2
20260906023104 75 104 1.7 5.2 0.00 0.00 0.00 90 1019.0
20260906021528 76 65 2.6 5.2 0.00 0.00 0.00 90 1018.9
20260906020101 76 82 2.6 7.0 0.00 0.00 0.00 90 1018.6
20260906020002 76 85 1.7 7.0 0.00 0.00 0.00 90 1018.6
20260906014532 77 81 2.6 5.2 0.00 0.00 0.00 89 1018.3
20260906013109 77 77 0.9 3.5 0.00 0.00 0.00 88 1018.1
20260906011526 78 87 0.0 0.9 0.00 0.00 0.00 88 1017.8
20260906010052 78 89 0.0 2.6 0.00 0.00 0.00 88 1017.8
20260906004523 78 102 0.0 0.0 0.00 0.00 0.00 88 1017.6
20260906003054 78 102 0.0 1.7 0.00 0.00 0.00 88 1017.6
20260906001524 78 103 1.7 5.2 0.00 0.00 0.00 87 1017.4
20260906000051 78 87 2.6 6.1 0.00 0.00 0.00 86 1017.3
20260905234510 79 83 1.7 4.3 0.00 0.00 0.00 84 1017.5
20260905233055 80 64 2.6 7.8 0.00 0.00 0.00 82 1017.5
20260905231520 82 73 2.6 7.8 0.00 0.00 0.00 80 1017.6
20260905230043 81 93 0.9 9.6 0.00 0.00 0.00 82 1017.2
20260905224534 81 64 5.2 10.4 0.00 0.00 0.00 82 1017.0
20260905223048 82 44 5.2 11.3 0.00 0.00 0.00 80 1017.0
20260905221519 82 60 5.2 11.3 0.00 0.00 0.00 81 1017.1
20260905220054 83 63 6.1 12.2 0.00 0.00 0.00 82 1017.1
20260905214528 84 83 3.5 11.3 0.00 0.00 0.00 80 1017.1
20260905213101 83 49 5.2 11.3 0.00 0.00 0.00 80 1017.1
20260905211537 84 60 4.3 11.3 0.00 0.00 0.00 81 1017.1
20260905210049 83 29 5.2 11.3 0.00 0.00 0.00 83 1017.5
20260905204517 84 55 3.5 8.7 0.00 0.00 0.00 82 1017.7
20260905203047 83 59 4.3 9.6 0.00 0.00 0.00 82 1017.9
20260905201522 84 66 2.6 8.7 0.00 0.00 0.00 80 1018.0
20260905200047 85 54 4.3 9.6 0.00 0.00 0.00 81 1018.0
20260905194521 85 64 3.5 9.6 0.00 0.00 0.00 80 1018.1
20260905193043 85 34 3.5 9.6 0.00 0.00 0.00 80 1018.2
20260905191517 85 44 3.5 8.7 0.00 0.00 0.00 80 1018.4
20260905190044 85 16 0.9 7.8 0.00 0.00 0.00 80 1018.6
20260905184526 85 23 1.7 7.8 0.00 0.00 0.00 82 1018.6
20260905183049 84 67 3.5 7.8 0.00 0.00 0.00 82 1018.6
20260905181510 84 38 1.7 8.7 0.00 0.00 0.00 83 1018.7
20260905180042 83 218 1.7 7.8 0.00 0.00 0.00 84 1018.5
20260905174503 84 9 3.5 10.4 0.00 0.00 0.00 83 1018.3
20260905173100 85 31 5.2 11.3 0.00 0.00 0.00 83 1018.3
20260905171557 86 45 5.2 10.4 0.00 0.00 0.00 81 1018.4
20260905170035 86 66 5.2 11.3 0.00 0.00 0.00 81 1018.4